Change the Weather History Date:

Sunday, April 7, 2013

  Actual Average Record
Temperature  
Mean Temperature 50 °F 46 °F  
Max Temperature 59 °F 56 °F 84 °F (1893)
Min Temperature 40 °F 36 °F 7 °F (1982)
Degree Days  
Heating Degree Days 15 19  
Month to date heating degree days 164 143  
Since 1 July heating degree days 5560 5718  
Cooling Degree Days 0 0  
Month to date cooling degree days 0 0  
Year to date cooling degree days 0 1  
Moisture  
Dew Point 39 °F    
Average Humidity 63    
Maximum Humidity 83    
Minimum Humidity 43    
Precipitation  
Precipitation T in 0.11 in 0.81 in (1998)
Month to date precipitation 0.04 0.73  
Year to date precipitation 8.63 6.75  
Snow  
Snow 0.00 in 0.10 in 3.00 in (2003)
Month to date snowfall 0.0 0.6  
Since 1 July snowfall 30.0 35.8  
Snow Depth 0.00 in    
Sea Level Pressure  
Sea Level Pressure 29.83 in    
Wind  
Wind Speed 11 mph (WNW)    
Max Wind Speed 25 mph    
Max Gust Speed 35 mph    
Visibility 10 miles    
Events      
T = Trace of Precipitation, MM = Missing Value Source: NWS Daily Summary

Daily Weather History Graph

Daily Weather History Graph

Search for Another Location

Airport or City:

Trip Planner

Search our weather history database for the weather conditions in past years. The results will help you decide how hot, cold, wet, or windy it might be!

Date:

Astronomy

Apr. 07, 2013 Rise Set
Actual Time 6:23 AM CDT 7:24 PM CDT
Civil Twilight 5:55 AM CDT 7:52 PM CDT
Nautical Twilight 5:21 AM CDT 8:26 PM CDT
Astronomical Twilight 4:46 AM CDT 9:02 PM CDT
Moon 4:43 AM CDT (4/7) 4:54 PM CDT (4/7)
Length of Visible Light 13h 57m
Length of Day
13h 00m
Waning Crescent, 8% of the Moon is Illuminated
Apr 7
Waning Crescent
Apr 10
New
Apr 18
First Quarter
Apr 25
Full
May 2
Last Quarter

Hourly Weather History & Observations

Time (CDT) Temp. Windchill Dew Point Humidity Pressure Visibility Wind Dir Wind Speed Gust Speed Precip Events Conditions
12:51 AM 54.0 °F - 46.9 °F 77% 29.60 in 10.0 mi SW 16.1 mph 25.3 mph 0.00 in   Mostly Cloudy
1:45 AM 53.6 °F - 48.2 °F 82% 29.62 in 10.0 mi WSW 13.8 mph 21.9 mph N/A   Overcast
1:51 AM 54.0 °F - 48.0 °F 80% 29.62 in 10.0 mi WSW 13.8 mph - N/A   Overcast
2:00 AM 53.6 °F - 48.2 °F 82% 29.63 in 10.0 mi West 16.1 mph 25.3 mph N/A   Overcast
2:24 AM 51.8 °F - 46.4 °F 82% 29.64 in 10.0 mi West 20.7 mph 31.1 mph 0.00 in   Light Drizzle
2:51 AM 50.0 °F - 46.9 °F 89% 29.65 in 10.0 mi WNW 15.0 mph 27.6 mph 0.00 in   Light Drizzle
3:36 AM 48.2 °F - 42.8 °F 82% 29.68 in 10.0 mi West 20.7 mph 28.8 mph 0.00 in   Overcast
3:51 AM 48.9 °F - 43.0 °F 80% 29.69 in 10.0 mi West 16.1 mph 24.2 mph 0.00 in   Overcast
4:51 AM 48.9 °F - 41.0 °F 74% 29.71 in 10.0 mi West 13.8 mph 24.2 mph N/A   Overcast
5:51 AM 46.0 °F 38.5 °F 37.9 °F 73% 29.76 in 10.0 mi West 19.6 mph 23.0 mph N/A   Overcast
6:51 AM 45.0 °F 38.2 °F 37.9 °F 76% 29.82 in 10.0 mi WNW 15.0 mph - N/A   Overcast
7:51 AM 44.1 °F 38.1 °F 37.0 °F 76% 29.86 in 10.0 mi West 11.5 mph - N/A   Mostly Cloudy
8:25 AM 44.6 °F 38.4 °F 35.6 °F 71% 29.87 in 10.0 mi WNW 12.7 mph - N/A   Scattered Clouds
8:51 AM 46.0 °F 41.0 °F 37.0 °F 71% 29.88 in 10.0 mi West 10.4 mph - N/A   Scattered Clouds
9:51 AM 48.2 °F - 37.4 °F 66% 29.89 in 10.0 mi West 11.5 mph - N/A   Scattered Clouds
10:51 AM 50.0 °F - 37.0 °F 61% 29.92 in 10.0 mi West 12.7 mph - N/A   Scattered Clouds
11:51 AM 53.1 °F - 37.9 °F 57% 29.94 in 10.0 mi West 10.4 mph - N/A   Scattered Clouds
12:51 PM 55.0 °F - 37.0 °F 51% 29.92 in 10.0 mi WNW 8.1 mph - N/A   Partly Cloudy
1:51 PM 57.0 °F - 37.0 °F 47% 29.93 in 10.0 mi West 6.9 mph - N/A   Scattered Clouds
2:51 PM 57.9 °F - 36.0 °F 44% 29.93 in 10.0 mi WNW 9.2 mph - N/A   Mostly Cloudy
3:42 PM 51.8 °F - 35.6 °F 54% 29.93 in 10.0 mi East 10.4 mph 20.7 mph N/A   Mostly Cloudy
3:51 PM 52.0 °F - 36.0 °F 54% 29.93 in 10.0 mi East 12.7 mph - N/A   Mostly Cloudy
4:51 PM 48.9 °F - 35.1 °F 59% 29.96 in 10.0 mi East 12.7 mph - N/A   Mostly Cloudy
5:51 PM 45.0 °F 39.3 °F 34.0 °F 65% 29.97 in 10.0 mi East 11.5 mph - N/A   Mostly Cloudy
6:51 PM 43.0 °F 36.8 °F 33.1 °F 68% 29.97 in 10.0 mi East 11.5 mph - N/A   Mostly Cloudy
7:51 PM 41.0 °F 34.3 °F 32.0 °F 70% 29.96 in 10.0 mi ENE 11.5 mph - N/A   Partly Cloudy
8:51 PM 39.9 °F 33.9 °F 32.0 °F 73% 29.97 in 10.0 mi East 9.2 mph - N/A   Clear
9:51 PM 39.2 °F 33.6 °F 32.0 °F 75% 29.96 in 10.0 mi ENE 8.1 mph - N/A   Clear
10:51 PM 39.9 °F 35.1 °F 32.0 °F 73% 29.95 in 10.0 mi ENE 6.9 mph - N/A   Clear
11:51 PM 39.2 °F 33.6 °F 33.8 °F 81% 29.90 in 10.0 mi East 8.1 mph - N/A   Clear